SAS434 EKCH-ESGG

Flight info

Callsign SAS434
Flight time 0h 36m
Altitude 22000
Route VEDAR L997 RISMA
Aircraft A320/M-SDE3FGHIRWY/LB1

Departure

Time 2026-04-25 19:13
Airport Copenhagen Kastrup Airport (EKCH)

Arrival

Time 2026-04-25 19:50
Airport Göteborg Landvetter Airport (ESGG)
Time Latitude Longitude Altitude Speed Heading
2026-04-25 18:36 55.62713 12.64466 24 ft 0 kts 102°
2026-04-25 19:02 55.62716 12.64440 24 ft 4 kts 101°
2026-04-25 19:03 55.62719 12.64378 28 ft 4 kts 76°
2026-04-25 19:03 55.62693 12.64331 28 ft 4 kts 27°
2026-04-25 19:03 55.62677 12.64317 24 ft 4 kts 25°
2026-04-25 19:04 55.62619 12.64272 27 ft 4 kts 31°
2026-04-25 19:04 55.62601 12.64244 26 ft 4 kts 86°
2026-04-25 19:05 55.62616 12.64160 24 ft 3 kts 123°
2026-04-25 19:05 55.62618 12.64156 27 ft 0 kts 123°
2026-04-25 19:08 55.62616 12.64161 26 ft 3 kts 123°
2026-04-25 19:09 55.62500 12.64473 24 ft 16 kts 123°
2026-04-25 19:09 55.62479 12.64530 25 ft 17 kts 123°
2026-04-25 19:09 55.62262 12.65120 25 ft 24 kts 121°
2026-04-25 19:10 55.62174 12.65138 26 ft 16 kts 214°
2026-04-25 19:10 55.62070 12.65016 27 ft 20 kts 214°
2026-04-25 19:10 55.61941 12.64869 24 ft 24 kts 213°
2026-04-25 19:10 55.61844 12.64755 25 ft 26 kts 214°
2026-04-25 19:11 55.61681 12.64565 27 ft 30 kts 214°
2026-04-25 19:11 55.61496 12.64351 24 ft 33 kts 212°
2026-04-25 19:11 55.61300 12.64132 26 ft 29 kts 213°
2026-04-25 19:11 55.61136 12.63944 24 ft 27 kts 213°
2026-04-25 19:12 55.60969 12.63751 24 ft 30 kts 212°
2026-04-25 19:12 55.60839 12.63600 25 ft 18 kts 211°
2026-04-25 19:12 55.60747 12.63683 24 ft 18 kts 133°
2026-04-25 19:12 55.60679 12.63855 26 ft 14 kts 80°
2026-04-25 19:13 55.60766 12.64006 26 ft 30 kts 41°
2026-04-25 19:13 55.61110 12.64538 24 ft 103 kts 41°
2026-04-25 19:13 55.61804 12.65605 48 ft 157 kts 35°
2026-04-25 19:13 55.62617 12.66856 801 ft 151 kts 33°
2026-04-25 19:14 55.63408 12.68106 1524 ft 159 kts 32°
2026-04-25 19:14 55.63988 12.68996 1802 ft 174 kts 33°
2026-04-25 19:14 55.65385 12.70909 2454 ft 203 kts 18°
2026-04-25 19:14 55.66820 12.71023 3030 ft 220 kts 346°
2026-04-25 19:15 55.68341 12.70347 3998 ft 228 kts 346°
2026-04-25 19:15 55.69910 12.69759 5108 ft 232 kts 352°
2026-04-25 19:15 55.71530 12.69495 6216 ft 236 kts 356°
2026-04-25 19:15 55.73177 12.69361 7257 ft 239 kts 356°
2026-04-25 19:16 55.74851 12.69253 8302 ft 242 kts 356°
2026-04-25 19:16 55.76543 12.69135 9354 ft 245 kts 355°
2026-04-25 19:16 55.78262 12.68999 10267 ft 253 kts 354°
2026-04-25 19:16 55.80063 12.68477 10683 ft 272 kts 341°
2026-04-25 19:17 55.81772 12.66937 11416 ft 280 kts 325°
2026-04-25 19:17 55.83171 12.64495 12296 ft 286 kts 309°
2026-04-25 19:17 55.84117 12.61340 13237 ft 293 kts 296°
2026-04-25 19:17 55.84868 12.57960 14132 ft 294 kts 296°
2026-04-25 19:18 55.85619 12.54574 15014 ft 294 kts 297°
2026-04-25 19:18 55.86368 12.51194 15904 ft 293 kts 298°
2026-04-25 19:18 55.87112 12.47828 16802 ft 292 kts 298°
2026-04-25 19:18 55.87853 12.44467 17723 ft 291 kts 299°
2026-04-25 19:19 55.88592 12.41121 18564 ft 290 kts 300°
2026-04-25 19:19 55.89401 12.37843 19316 ft 285 kts 307°
2026-04-25 19:19 55.90607 12.35103 20053 ft 280 kts 320°
2026-04-25 19:19 55.91615 12.33674 20545 ft 278 kts 328°
2026-04-25 19:20 55.94000 12.31981 21509 ft 284 kts 345°
2026-04-25 19:20 55.95950 12.31362 21847 ft 285 kts 345°
2026-04-25 19:20 55.97879 12.30773 21919 ft 274 kts 346°
2026-04-25 19:20 55.99713 12.30229 21925 ft 264 kts 346°
2026-04-25 19:21 56.01521 12.29690 21929 ft 262 kts 345°
2026-04-25 19:21 56.05104 12.28601 21930 ft 261 kts 345°
2026-04-25 19:21 56.06893 12.28060 21929 ft 261 kts 346°
2026-04-25 19:22 56.08690 12.27518 21928 ft 261 kts 346°
2026-04-25 19:22 56.10479 12.26978 21931 ft 261 kts 346°
2026-04-25 19:22 56.14056 12.25891 21932 ft 261 kts 346°
2026-04-25 19:23 56.15843 12.25343 21933 ft 261 kts 346°
2026-04-25 19:23 56.19423 12.24257 21945 ft 261 kts 346°
2026-04-25 19:23 56.21214 12.23713 21943 ft 261 kts 346°
2026-04-25 19:24 56.23009 12.23169 21950 ft 261 kts 346°
2026-04-25 19:24 56.24802 12.22628 21953 ft 261 kts 346°
2026-04-25 19:24 56.28387 12.21542 21957 ft 261 kts 346°
2026-04-25 19:25 56.31972 12.20448 21962 ft 261 kts 346°
2026-04-25 19:25 56.33763 12.19896 21965 ft 261 kts 346°
2026-04-25 19:25 56.35553 12.19347 21963 ft 261 kts 347°
2026-04-25 19:26 56.37344 12.18801 21966 ft 261 kts 347°
2026-04-25 19:26 56.39132 12.18255 21969 ft 260 kts 347°
2026-04-25 19:26 56.40918 12.17708 21968 ft 260 kts 347°
2026-04-25 19:26 56.42704 12.17159 21970 ft 260 kts 347°
2026-04-25 19:27 56.44492 12.16607 21970 ft 260 kts 347°
2026-04-25 19:27 56.45670 12.16242 21971 ft 260 kts 347°
2026-04-25 19:27 56.48057 12.15503 21971 ft 260 kts 347°
2026-04-25 19:27 56.49838 12.14951 21972 ft 260 kts 347°
2026-04-25 19:28 56.51624 12.14400 21975 ft 260 kts 347°
2026-04-25 19:28 56.53406 12.13848 21976 ft 259 kts 347°
2026-04-25 19:28 56.55165 12.13304 21979 ft 259 kts 347°
2026-04-25 19:28 56.56942 12.12752 21980 ft 259 kts 347°
2026-04-25 19:29 56.58719 12.12200 21978 ft 259 kts 347°
2026-04-25 19:29 56.60497 12.11646 21981 ft 259 kts 347°
2026-04-25 19:29 56.62269 12.11095 21986 ft 259 kts 347°
2026-04-25 19:29 56.64044 12.10542 21975 ft 258 kts 347°
2026-04-25 19:30 56.65790 12.10000 21719 ft 251 kts 347°
2026-04-25 19:30 56.67485 12.09477 21458 ft 245 kts 347°
2026-04-25 19:30 56.69158 12.08958 21195 ft 243 kts 347°
2026-04-25 19:30 56.70823 12.08441 20934 ft 243 kts 347°
2026-04-25 19:31 56.72484 12.07924 20676 ft 242 kts 347°
2026-04-25 19:31 56.74145 12.07404 20421 ft 242 kts 347°
2026-04-25 19:31 56.75806 12.06883 20176 ft 242 kts 347°
2026-04-25 19:31 56.77468 12.06361 19916 ft 242 kts 347°
2026-04-25 19:32 56.79127 12.05840 19661 ft 242 kts 347°
2026-04-25 19:32 56.80786 12.05320 19427 ft 242 kts 347°
2026-04-25 19:32 56.82447 12.04801 19180 ft 242 kts 347°
2026-04-25 19:32 56.83571 12.04448 19015 ft 242 kts 347°
2026-04-25 19:33 56.85772 12.03755 18696 ft 243 kts 347°
2026-04-25 19:33 56.87440 12.03233 18455 ft 243 kts 347°
2026-04-25 19:33 56.89109 12.02712 18217 ft 243 kts 347°
2026-04-25 19:33 56.90779 12.02185 17928 ft 244 kts 347°
2026-04-25 19:34 56.92451 12.01654 17653 ft 244 kts 347°
2026-04-25 19:34 56.94129 12.01122 17372 ft 245 kts 347°
2026-04-25 19:34 56.95816 12.00585 17086 ft 246 kts 347°
2026-04-25 19:34 56.97505 12.00047 16824 ft 247 kts 347°
2026-04-25 19:35 56.99200 11.99505 16556 ft 247 kts 347°
2026-04-25 19:35 57.00899 11.98961 16283 ft 248 kts 347°
2026-04-25 19:35 57.02601 11.98421 16015 ft 249 kts 347°
2026-04-25 19:35 57.04314 11.97882 15755 ft 250 kts 348°
2026-04-25 19:36 57.06035 11.97400 15489 ft 251 kts 349°
2026-04-25 19:36 57.07772 11.96963 15228 ft 252 kts 349°
2026-04-25 19:36 57.09516 11.96538 14971 ft 253 kts 349°
2026-04-25 19:36 57.11263 11.96113 14715 ft 254 kts 349°
2026-04-25 19:37 57.13019 11.95679 14464 ft 255 kts 349°
2026-04-25 19:37 57.14782 11.95239 14208 ft 256 kts 349°
2026-04-25 19:37 57.16550 11.94798 13959 ft 257 kts 349°
2026-04-25 19:37 57.18329 11.94347 13701 ft 258 kts 349°
2026-04-25 19:38 57.20111 11.93892 13416 ft 258 kts 349°
2026-04-25 19:38 57.21885 11.93436 13139 ft 257 kts 349°
2026-04-25 19:38 57.23657 11.92984 12841 ft 257 kts 349°
2026-04-25 19:38 57.25422 11.92535 12448 ft 256 kts 350°
2026-04-25 19:39 57.27184 11.92089 12046 ft 255 kts 350°
2026-04-25 19:39 57.28923 11.91650 11630 ft 255 kts 350°
2026-04-25 19:39 57.30701 11.91202 11213 ft 255 kts 350°
2026-04-25 19:39 57.32461 11.90755 10809 ft 255 kts 351°
2026-04-25 19:40 57.34218 11.90301 10403 ft 255 kts 351°
2026-04-25 19:40 57.35981 11.89843 9992 ft 256 kts 351°
2026-04-25 19:40 57.37745 11.89388 9562 ft 256 kts 351°
2026-04-25 19:40 57.39511 11.88932 9148 ft 256 kts 351°
2026-04-25 19:41 57.41265 11.88481 8797 ft 253 kts 352°
2026-04-25 19:41 57.42982 11.88039 8415 ft 252 kts 352°
2026-04-25 19:41 57.44079 11.87756 8158 ft 251 kts 352°
2026-04-25 19:41 57.44664 11.87605 8035 ft 251 kts 352°
2026-04-25 19:42 57.47457 11.86884 7752 ft 237 kts 352°
2026-04-25 19:42 57.49079 11.86471 7466 ft 234 kts 354°
2026-04-25 19:42 57.50695 11.86725 7152 ft 234 kts 16°
2026-04-25 19:42 57.52107 11.88237 6843 ft 239 kts 39°
2026-04-25 19:43 57.52992 11.90846 6635 ft 244 kts 69°
2026-04-25 19:43 57.53015 11.93994 6494 ft 249 kts 100°
2026-04-25 19:43 57.52202 11.96821 6368 ft 248 kts 122°
2026-04-25 19:43 57.51134 11.99290 6196 ft 243 kts 125°
2026-04-25 19:44 57.50039 12.01695 5771 ft 247 kts 125°
2026-04-25 19:44 57.48921 12.04142 5339 ft 247 kts 123°
2026-04-25 19:44 57.48190 12.06862 4878 ft 228 kts 94°
2026-04-25 19:44 57.48264 12.09686 4358 ft 211 kts 63°
2026-04-25 19:45 57.48971 12.11904 4103 ft 191 kts 39°
2026-04-25 19:45 57.50027 12.13283 3873 ft 182 kts 21°
2026-04-25 19:45 57.51160 12.14299 3627 ft 180 kts 21°
2026-04-25 19:45 57.52278 12.15304 3382 ft 178 kts 21°
2026-04-25 19:46 57.53378 12.16296 3132 ft 170 kts 21°
2026-04-25 19:46 57.54412 12.17230 2905 ft 161 kts 21°
2026-04-25 19:46 57.55399 12.18121 2704 ft 156 kts 21°
2026-04-25 19:46 57.56367 12.18994 2471 ft 153 kts 21°
2026-04-25 19:47 57.57314 12.19850 2247 ft 147 kts 21°
2026-04-25 19:47 57.58190 12.20644 2073 ft 135 kts 20°
2026-04-25 19:47 57.59004 12.21382 1878 ft 126 kts 20°
2026-04-25 19:47 57.59779 12.22083 1701 ft 122 kts 20°
2026-04-25 19:48 57.60543 12.22769 1559 ft 121 kts 20°
2026-04-25 19:48 57.61312 12.23465 1343 ft 124 kts 21°
2026-04-25 19:48 57.62085 12.24161 1139 ft 124 kts 21°
2026-04-25 19:48 57.62852 12.24859 989 ft 122 kts 22°
2026-04-25 19:49 57.63618 12.25554 813 ft 122 kts 22°
2026-04-25 19:49 57.63874 12.25787 764 ft 122 kts 22°
2026-04-25 19:49 57.64885 12.26710 552 ft 122 kts 24°
2026-04-25 19:49 57.65810 12.27548 505 ft 87 kts 25°
2026-04-25 19:50 57.66397 12.28083 511 ft 38 kts 26°
2026-04-25 19:50 57.66595 12.28292 512 ft 12 kts 37°
2026-04-25 19:50 57.66637 12.28377 512 ft 15 kts 50°
2026-04-25 19:51 57.66704 12.28541 512 ft 13 kts 56°
2026-04-25 19:51 57.66750 12.28668 513 ft 6 kts 56°
2026-04-25 19:51 57.66769 12.28721 513 ft 9 kts 56°
2026-04-25 19:51 57.66850 12.28842 513 ft 14 kts 23°
2026-04-25 19:52 57.66915 12.28900 514 ft 17 kts 26°
2026-04-25 19:52 57.67024 12.29005 514 ft 14 kts 39°
2026-04-25 19:52 57.67019 12.29163 516 ft 13 kts 114°
2026-04-25 19:52 57.66984 12.29322 516 ft 13 kts 96°
2026-04-25 19:53 57.66981 12.29465 516 ft 9 kts 116°
2026-04-25 19:53 57.66973 12.29497 516 ft 1 kts 116°
2026-04-25 19:53 57.66972 12.29502 516 ft 1 kts 116°
2026-04-25 19:53 57.66971 12.29502 516 ft 0 kts 116°